[[{"header":{"parameterUnit":"m.s-1","parameterCategory":1,"la1":30.2991,"la2":30.254,"lo1":-89.0895,"lo2":-89.0444,"dy":0.0017,"dx":0.0017,"nx":28,"ny":28,"refTime":"2024-02-09T03:00:00:Z","depth":0,"parameterNumber":2,"parameterNumberName":"U-component_of_WINDS"},"data":[0,0,0,0,0,0,0,0,0,0,0,0,0,0,0,0,0,0,0,0,0,0,0,0,0,0,0,0,0,0,0,0,0,0,0,0,0,0,0,0,0,0,0,0,0,0,0,0,0,0,0,0,0,0,0,0,0,0,-5.09,-5.0901,0,-5.0953,-5.0954,-5.0954,-5.0903,-5.0901,-5.0899,-5.0897,-5.0949,-5.0952,-5.0956,0,0,0,0,0,0,0,0,0,0,0,0,0,-5.0754,-5.0757,-5.09,-5.0901,-5.0902,-5.0953,-5.0954,-5.0955,-5.0904,-5.0901,-5.0899,-5.0896,-5.0948,-5.0952,-5.0956,0,0,0,0,0,0,0,0,0,0,0,0,0,-5.0813,-5.0758,-5.09,-5.0882,-5.0881,-5.0953,-5.0954,-5.0955,-5.0904,-5.0901,-5.0898,-5.0895,-5.0947,-5.0952,-5.0956,-5.1048,0,0,-5.0971,-5.0973,0,0,0,0,0,0,0,0,-5.081,-5.0819,-5.0884,-5.0884,-5.0883,-5.0919,-5.0921,-5.0986,-5.0905,-5.0895,-5.0897,-5.0894,-5.0941,-5.0946,-5.0963,-5.105,-5.1052,-5.0972,-5.0975,-5.0977,-5.0978,0,0,0,0,0,0,0,-5.0806,-5.0816,-5.0921,-5.0885,-5.0884,-5.0871,-5.0877,-5.0933,-5.0935,-5.0896,-5.0892,-5.09,-5.094,-5.0958,-5.0964,-5.1053,-5.0972,-5.0976,-5.0979,-5.0981,-5.1218,-5.1222,0,0,0,0,0,0,-5.0804,-5.0813,-5.0919,-5.0923,-5.0838,-5.0877,-5.0882,-5.091,-5.0934,-5.0935,-5.0902,-5.0897,-5.0951,-5.0958,-5.0965,-5.1074,-5.0977,-5.0981,-5.0984,-5.1215,-5.1219,-5.1223,0,0,0,0,0,0,-5.0801,-5.0814,-5.0917,-5.0867,-5.0879,-5.0882,-5.0914,-5.0913,-5.0931,-5.0939,-5.0938,-5.092,-5.0949,-5.0959,-5.1028,-5.1075,-5.0984,-5.0988,-5.1211,-5.1216,-5.1221,-5.1291,0,0,0,0,0,0,-5.0797,-5.0813,-5.0848,-5.0868,-5.0882,-5.0979,-5.0917,-5.0916,-5.094,-5.0933,-5.0956,-5.0956,-5.0948,-5.1021,-5.1033,-5.108,-5.0992,-5.1207,-5.1213,-5.1219,-5.1284,-5.1298,-5.1309,0,0,0,0,0,-5.0792,-5.0864,-5.085,-5.0863,-5.0925,-5.0982,-5.099,-5.0979,-5.0944,-5.0978,-5.0984,-5.0956,-5.1068,-5.1028,-5.1041,-5.1091,-5.1204,-5.1212,-5.1219,-5.1279,-5.1295,-5.1309,0,0,0,0,0,0,-5.0848,-5.0867,-5.085,-5.0932,-5.0956,-5.0973,-5.1016,-5.0996,-5.103,-5.1023,-5.1007,-5.1013,-5.1086,-5.1096,-5.1051,-5.1181,-5.113,-5.1141,-5.1171,-5.1187,-5.1199,-5.1194,-5.0996,0,0,0,0,0,-5.087,-5.0915,-5.0929,-5.0999,-5.1012,-5.1013,-5.1037,-5.1027,-5.1051,-5.106,-5.107,-5.1094,-5.1135,-5.1162,-5.12,-5.1287,-5.129,-5.1327,-5.134,-5.135,-5.1358,-5.1405,-5.1421,-5.1248,-5.1248,-5.1247,0,0,-5.0915,-5.0931,-5.096,-5.1011,-5.1028,-5.1075,-5.1021,-5.1072,-5.1107,-5.1068,-5.1134,-5.1143,-5.1168,-5.1247,-5.1282,-5.1257,-5.1408,-5.1359,-5.1367,-5.137,-5.1415,-5.1431,-5.1446,-5.1253,-5.1252,-5.1251,0,0,-5.1021,-5.1039,-5.1099,-5.1119,-5.1146,-5.1147,-5.1162,-5.1183,-5.1187,-5.1254,-5.1226,-5.1267,-5.1337,-5.1357,-5.1376,-5.1493,-5.1468,-5.1506,-5.157,-5.1616,-5.163,-5.1642,-5.1683,-5.1698,-5.1515,-5.1515,-5.1516,0,-5.1074,-5.1143,-5.1133,-5.1187,-5.121,-5.1179,-5.1241,-5.126,-5.1298,-5.1315,-5.1287,-5.1376,-5.1391,-5.1474,-5.1503,-5.1519,-5.1535,-5.1502,-5.1629,-5.1641,-5.1652,-5.1691,-5.1706,-5.152,-5.1519,-5.1519,-5.1518,0,-5.1206,-5.1255,-5.1301,-5.134,-5.1369,-5.1427,-5.1425,-5.1455,-5.1444,-5.1448,-5.1516,-5.1534,-5.1575,-5.1595,-5.1583,-5.1677,-5.166,-5.1631,-5.1579,-5.1673,-5.1709,-5.1724,-5.1526,-5.1524,-5.1523,-5.1522,0,0,-5.1345,-5.1381,-5.1398,-5.1416,-5.1446,-5.1483,-5.154,-5.1582,-5.1608,-5.1637,-5.1683,-5.1745,-5.1719,-5.1741,-5.1732,-5.1773,-5.1864,-5.1738,-5.1739,-5.176,-5.1968,-5.1988,-5.2006,-5.1849,-5.1852,-5.1854,-5.1965,0,-5.1452,-5.155,-5.1544,-5.1637,-5.1682,-5.1655,-5.1705,-5.1729,-5.1734,-5.1773,-5.1779,-5.1823,-5.1785,-5.1798,-5.1838,-5.1845,-5.1905,-5.1837,-5.1891,-5.1893,-5.1884,-5.2025,-5.2046,-5.2149,-5.1979,-5.1982,-5.1983,0,-5.1588,-5.1623,-5.1721,-5.1745,-5.1764,-5.1809,-5.1847,-5.1885,-5.1912,-5.1913,-5.194,-5.1925,-5.1982,-5.1931,-5.201,-5.1963,-5.1986,-5.1993,-5.1997,-5.1999,-5.1942,-5.203,-5.2182,-5.2197,-5.2006,-5.2004,-5.2002,0,-5.1678,-5.175,-5.1818,-5.1834,-5.1865,-5.1897,-5.1912,-5.1936,-5.1962,-5.1996,-5.2013,-5.2053,-5.2074,-5.2105,-5.2101,-5.2065,-5.2181,-5.213,-5.2183,-5.2183,-5.2206,-5.2204,-5.2363,-5.2224,-5.2224,-5.2224,-5.2223,0,-5.1796,-5.1857,-5.1859,-5.1901,-5.1968,-5.1961,-5.2028,-5.2039,-5.2061,-5.2104,-5.2084,-5.2125,-5.2118,-5.2159,-5.2157,-5.2222,-5.2232,-5.2234,-5.2232,-5.2235,-5.2234,-5.2247,-5.2239,-5.2228,-5.2227,-5.2226,-5.2225,0,-5.1907,-5.1911,-5.1984,-5.2008,-5.2016,-5.2065,-5.2085,-5.2125,-5.213,-5.2185,-5.2197,-5.2205,-5.2252,-5.2253,-5.2306,-5.2305,-5.2384,-5.2375,-5.2375,-5.2373,-5.2425,-5.2419,-5.2595,-5.2618,-5.2466,-5.2468,-5.2469,0,-5.1981,-5.2027,-5.2058,-5.2086,-5.2103,-5.2148,-5.2175,-5.2171,-5.22,-5.2236,-5.2271,-5.2317,-5.2353,-5.243,-5.244,-5.2481,-5.2472,-5.2531,-5.2478,-5.2479,-5.2471,-5.2468,-5.2472,-5.254,-5.2542,-5.2544,-5.2545,0,-5.2111,-5.2112,-5.2152,-5.2195,-5.2228,-5.2261,-5.2291,-5.2315,-5.2315,-5.2348,-5.2397,-5.2426,-5.2482,-5.2527,-5.2568,-5.2582,-5.2563,-5.2562,-5.2576,-5.2578,-5.2575,-5.2576,-5.2402,-5.2557,-5.2556,-5.2555,-5.2554,-5.2554,-5.2205,-5.2245,-5.2273,-5.2319,-5.2343,-5.2372,-5.241,-5.2422,-5.2463,-5.2509,-5.2505,-5.2559,-5.2586,-5.2639,-5.2657,-5.2699,-5.2678,-5.2699,-5.2704,-5.2709,-5.2714,-5.2571,-5.2707,-5.2706,-5.2706,-5.2706,-5.2706,0,-5.2333,-5.2351,-5.2394,-5.2437,-5.2474,-5.2456,-5.2489,-5.2521,-5.2569,-5.2597,-5.2634,-5.2691,-5.2736,-5.2751,-5.2794,-5.2825,-5.2818,-5.2837,-5.2833,-5.2837,-5.273,-5.2713,-5.2842,-5.2842,-5.2842,-5.2842,-5.2842,-5.2842,-5.2403,-5.2471,-5.2475,-5.2554,-5.2571,-5.2625,-5.2646,-5.2673,-5.2695,-5.276,-5.2798,-5.2808,-5.2831,-5.2877,-5.2917,-5.292,-5.2936,-5.2958,-5.2958,-5.2858,-5.2844,-5.2831,-5.2815,-5.2962,-5.2963,-5.306,-5.3061,-5.3062]},{"header":{"parameterUnit":"m.s-1","parameterCategory":1,"la1":30.2991,"la2":30.254,"lo1":-89.0895,"lo2":-89.0444,"dy":0.0017,"dx":0.0017,"nx":28,"ny":28,"refTime":"2024-02-09T03:00:00:Z","depth":0,"parameterNumber":3,"parameterNumberName":"V-component_of_WINDS"},"data":[0,0,0,0,0,0,0,0,0,0,0,0,0,0,0,0,0,0,0,0,0,0,0,0,0,0,0,0,0,0,0,0,0,0,0,0,0,0,0,0,0,0,0,0,0,0,0,0,0,0,0,0,0,0,0,0,0,0,1.6084,1.6085,0,1.6122,1.6122,1.6122,1.6193,1.6194,1.6195,1.6197,1.6231,1.623,1.623,0,0,0,0,0,0,0,0,0,0,0,0,0,1.6071,1.6071,1.6084,1.6085,1.6085,1.6121,1.6122,1.6123,1.6192,1.6194,1.6196,1.6197,1.6231,1.623,1.623,0,0,0,0,0,0,0,0,0,0,0,0,0,1.6089,1.6071,1.6084,1.6125,1.6129,1.6121,1.6122,1.6123,1.6192,1.6194,1.6196,1.6198,1.6231,1.6231,1.623,1.6185,0,0,1.6228,1.6228,0,0,0,0,0,0,0,0,1.6088,1.609,1.6118,1.6122,1.6126,1.6155,1.613,1.6143,1.6192,1.6168,1.6197,1.6199,1.6204,1.6205,1.6208,1.6187,1.6188,1.6228,1.6228,1.6228,1.6227,0,0,0,0,0,0,0,1.6087,1.6089,1.6099,1.6119,1.6123,1.614,1.6145,1.6133,1.6173,1.617,1.6175,1.6179,1.6206,1.6208,1.6209,1.6189,1.6228,1.6228,1.6227,1.6227,1.6135,1.6133,0,0,0,0,0,0,1.608,1.6087,1.6098,1.61,1.6112,1.6139,1.6144,1.6143,1.6174,1.6181,1.6177,1.6182,1.6208,1.621,1.621,1.6162,1.6228,1.6227,1.6227,1.6137,1.6134,1.6132,0,0,0,0,0,0,1.608,1.6081,1.6096,1.6095,1.6098,1.6137,1.6135,1.6143,1.6145,1.6179,1.6187,1.6172,1.621,1.6211,1.6192,1.6164,1.6227,1.6226,1.6139,1.6136,1.6133,1.6062,0,0,0,0,0,0,1.6079,1.608,1.6064,1.6094,1.6098,1.6077,1.6134,1.6142,1.6145,1.6151,1.6176,1.6182,1.6211,1.6192,1.6191,1.6164,1.6226,1.6142,1.6138,1.6134,1.6067,1.6057,1.6048,0,0,0,0,0,1.6078,1.6041,1.6063,1.6064,1.6079,1.6076,1.6078,1.6113,1.6142,1.6126,1.6148,1.6182,1.6167,1.619,1.6189,1.6161,1.6144,1.6139,1.6134,1.6072,1.6059,1.6049,0,0,0,0,0,0,1.6005,1.6046,1.607,1.6042,1.6055,1.6088,1.6069,1.6099,1.6103,1.6109,1.6151,1.6156,1.6131,1.6144,1.6169,1.612,1.6161,1.6156,1.6113,1.6102,1.6092,1.609,1.6225,0,0,0,0,0,1.5986,1.5981,1.6016,1.5988,1.5993,1.603,1.6029,1.6056,1.607,1.6076,1.6097,1.6109,1.6107,1.6105,1.6105,1.6069,1.6076,1.605,1.6041,1.6033,1.6028,1.6011,1.6001,1.6116,1.6116,1.6116,0,0,1.5946,1.5967,1.5961,1.5974,1.5987,1.598,1.6034,1.6024,1.6019,1.6074,1.6058,1.6073,1.6089,1.6062,1.6051,1.6072,1.5997,1.6027,1.602,1.602,1.6005,1.5994,1.5985,1.6113,1.6114,1.6114,0,0,1.5869,1.5885,1.5864,1.5877,1.5897,1.5921,1.5916,1.5944,1.5957,1.5942,1.5983,1.5978,1.5973,1.5984,1.5988,1.5917,1.5949,1.5916,1.5867,1.585,1.5841,1.5833,1.5809,1.58,1.5911,1.5911,1.5911,0,1.5817,1.5809,1.5849,1.5837,1.5842,1.5893,1.5872,1.5882,1.59,1.5901,1.5925,1.5922,1.5936,1.5913,1.5896,1.5897,1.5893,1.5914,1.5839,1.5832,1.5825,1.5803,1.5793,1.5907,1.5907,1.5908,1.5908,0,1.5744,1.5738,1.5719,1.5738,1.574,1.5723,1.576,1.5757,1.5783,1.5805,1.5789,1.5808,1.5814,1.581,1.5834,1.579,1.5803,1.5832,1.5873,1.5809,1.5789,1.5781,1.5901,1.5902,1.5904,1.5905,0,0,1.5623,1.5665,1.5657,1.5667,1.5693,1.5689,1.5674,1.5682,1.5679,1.569,1.5679,1.5675,1.5703,1.5708,1.5734,1.572,1.5664,1.5751,1.5752,1.5735,1.5617,1.5596,1.5585,1.5684,1.5683,1.5682,1.5617,0,1.5554,1.5534,1.5569,1.554,1.5536,1.5584,1.5572,1.5586,1.5606,1.5605,1.5626,1.5623,1.566,1.5664,1.5651,1.5673,1.5641,1.5678,1.5675,1.5674,1.5671,1.5575,1.5552,1.5489,1.5609,1.5607,1.5606,0,1.547,1.5479,1.545,1.5479,1.5479,1.5467,1.5478,1.5475,1.5493,1.5508,1.5515,1.5546,1.5534,1.5573,1.5557,1.5582,1.5583,1.5593,1.5592,1.5594,1.5637,1.5575,1.547,1.5461,1.5594,1.5595,1.5596,0,1.5386,1.5391,1.5375,1.5381,1.5414,1.5405,1.5419,1.5438,1.544,1.5449,1.5451,1.5457,1.546,1.5464,1.5496,1.5521,1.5476,1.5518,1.5489,1.5488,1.5478,1.5478,1.5373,1.5476,1.5476,1.5476,1.5476,0,1.5306,1.5287,1.5338,1.5328,1.5308,1.5348,1.5327,1.5345,1.5362,1.5356,1.5397,1.539,1.5433,1.5431,1.5455,1.5439,1.544,1.5452,1.5459,1.5449,1.5448,1.5451,1.5456,1.5474,1.5474,1.5475,1.5475,0,1.521,1.5243,1.5229,1.5262,1.527,1.5254,1.5282,1.5274,1.5297,1.5289,1.5289,1.5325,1.5324,1.5357,1.5362,1.5379,1.5352,1.5366,1.5347,1.5352,1.5322,1.5324,1.5216,1.5204,1.5313,1.5312,1.5311,0,1.5157,1.5143,1.5176,1.5176,1.5187,1.5186,1.5189,1.5228,1.523,1.5249,1.5239,1.5242,1.5247,1.5244,1.527,1.5275,1.529,1.5251,1.5291,1.5282,1.5291,1.5292,1.5291,1.5243,1.5242,1.5241,1.524,0,1.506,1.5077,1.5081,1.5091,1.5094,1.5103,1.5115,1.5112,1.5155,1.5154,1.5155,1.5159,1.5166,1.5169,1.5179,1.5192,1.5223,1.5227,1.5221,1.5211,1.5201,1.5208,1.5326,1.523,1.5231,1.5232,1.5232,1.5232,1.4985,1.4976,1.4998,1.5001,1.5014,1.5024,1.5019,1.5042,1.5044,1.5054,1.5076,1.5074,1.5092,1.5108,1.5119,1.5117,1.5136,1.5126,1.5124,1.5122,1.5117,1.5201,1.5118,1.5119,1.5119,1.5119,1.512,0,1.4891,1.4908,1.491,1.4926,1.4929,1.4959,1.4974,1.4974,1.4971,1.4986,1.4991,1.4992,1.4996,1.5022,1.5028,1.5022,1.5036,1.5022,1.5024,1.5026,1.5098,1.5104,1.501,1.501,1.501,1.501,1.501,1.501,1.4843,1.483,1.485,1.4844,1.486,1.486,1.4866,1.4875,1.4888,1.4888,1.4892,1.4909,1.4929,1.4937,1.4941,1.4949,1.495,1.4931,1.4943,1.501,1.5021,1.5031,1.5037,1.493,1.493,1.4872,1.4871,1.4871]}]]